Location: Seattle
(47.6064°N, 122.3308°W)
Time: 20:35:49
(UTC-07:00)

S-56A Canister/Altair - Pass Details

Date: 30 July 2021
Orbit: 632 x 2500 km, 38.9° (Epoch: 24 September)

Event Time Altitude Azimuth Distance (km) Brightness Sun altitude
Rises 23:15:16 0° 282° (WNW) 6,101 12.7 -18.9°
Reaches altitude 10° 23:21:05 10° 267° (W) 4,908 11.9 -19.4°
Maximum altitude 23:29:11 19° 230° (SW) 3,822 10.9 -20.0°
Enters shadow 23:34:44 13° 198° (SSW) 3,892 10.7 -20.4°
